Location: U-46 Planetarium
(42.0300°N, 88.2740°W)
Time: 02:48:21
(UTC-05:00)

FENGYUN 3A - Pass Details

Date: 16 December 2017
Orbit: 820 x 833 km, 98.4° (Epoch: 20 July)

Event Time Altitude Azimuth Distance (km) Brightness Sun altitude
Rises 17:16:38 0° 134° (SE) 3,352 6.6 -9.7°
Reaches altitude 10° 17:19:15 10° 124° (ESE) 2,421 5.8 -10.2°
Maximum altitude 17:23:46 29° 66° (ENE) 1,481 4.4 -11.0°
Drops below altitude 10° 17:28:18 10° 8° (N) 2,428 5.8 -11.8°
Sets 17:30:55 0° 358° (N) 3,363 6.6 -12.2°
